Washington, DC (20082)

8:38 PM EST on January 31, 2015 (GMT -0500)
H Street Corridor - NoMa | Change Station
CLOSE
Current Station
Personal Weather Station
Location: Washington, DC
Elevation: 56 ft
Nearby Weather Stations

Elev 56 ft 38.90 °N, 77.00 °W | Updated 4 seconds ago

Clear
Clear
32.7 °F
Feels Like 33 °F
N
0.0
Wind Variable Wind from WSW
Gusts 2.0 mph

Today
High -- | Low -- °F
--% Chance of Precip.
Yesterday
High -- | Low -- °F
Precip. -- in
7:15 AM 5:28 PM
Waxing Gibbous, 92% visible
Pressure 30.29 in
Visibility 10.0 miles
Clouds Clear
Windchill 33 °F
Dew Point 14 °F
Humidity 46%
Rainfall 0.00 in
Snow Depth Not available.
UV 0 out of 12
Pollen 1.70 out of 12
Air Quality Not available.
Flu Activity Not available.
METAR KDCA 010052Z 00000KT 10SM CLR M01/M07 A3029 RMK AO2 SLP257 T10061072

More Conditions Fewer Conditions

Pressure 30.29 in
Visibility 10.0 miles
Clouds Clear
Windchill 33 °F
Dew Point 14 °F
Humidity 46%
Rainfall 0.00 in
Snow Depth Not available.
UV 0 out of 12
Pollen 1.70 out of 12
Air Quality Not available.
Flu Activity Not available.
METAR KDCA 010052Z 00000KT 10SM CLR M01/M07 A3029 RMK AO2 SLP257 T10061072

More Conditions Fewer Conditions

10-Day Weather Forecast

Almanac

Astronomy

Jan. 31, 2015 Rise Set
Actual Time
Civil Twilight
Nautical Twilight
Astronomical Twilight
Moon
Length of Visible Light
Length of Day
Tomorrow will be .
, % of the Moon is Illuminated

Today's Extremes

State Highs State Lows

Community

WunderPhotos

Upload Photos

1,792,278 photos uploaded!

WunderBlogs® & News

Nearby

Air Quality

  Air Quality AQ Index Pollutant
Not available.

Snow Depth

Station Depth Elevation

Earthquake Activity

City Distance Mag. Time & Date
Minimum magnitude displayed is 2.5.

Coastal Water Temperatures

Place Temperature

Nearby Weather Stations